Tracking 19634 objects as of 22-May-2019
HD Live streaming from Space Station
objects crossing your sky now

COSMOS 520

Track COSMOS 520 now!
COSMOS 520 is classified as:


NORAD ID: 6192
Int'l Code: 1972-072A
Perigee: 8,410.2 km
Apogee: 31,829.0 km
Inclination: 73.2 °
Period: 715.1 minutes
Semi major axis: 26490 km
RCS: 12.5618 m2 (large)
Launch date: September 19, 1972
Source: Commonwealth of Independent States (former USSR) (CIS)
Launch site: PLESETSK MISSILE AND SPACE COMPLEX (PKMTR)
aabbcc
Your satellite tracking list
Your tracking list is empty




NASA's NSSDC Master Catalog

Two Line Element Set (TLE):
1  6192U 72072A   19141.68543918 -.00000023 +00000-0 +00000-0 0  9992
2  6192 073.2314 312.8313 4420214 270.8939 108.8388 02.01356535343170
Source of the keplerian elements: AFSPC